EW0608 Weather Reports


Display with metric or nautical units.
time (UTC)temp
F
wind
direction
speed
MPH
gust
MPH
rain 1hr
in
rain 24hr
in
rain mn
in
humidity
%
barometer
mb
20260509233915 63 282 0.0 0.0 0.00 0.00 0.00 68 1007.7
20260509233407 63 282 0.0 0.0 0.00 0.00 0.00 67 1007.7
20260509233039 63 282 0.0 0.0 0.00 0.00 0.00 68 1007.4
20260509232839 63 282 0.0 0.0 0.00 0.00 0.00 67 1007.7
20260509232351 64 282 0.0 0.0 0.00 0.00 0.00 66 1007.7
20260509231903 65 282 0.0 1.0 0.00 0.00 0.00 65 1007.7
20260509231556 65 282 0.0 2.0 0.00 0.00 0.00 64 1007.3
20260509231355 65 282 0.0 2.0 0.00 0.00 0.00 65 1007.6
20260509230846 66 282 1.0 2.0 0.00 0.00 0.00 63 1007.6
20260509230418 66 282 0.0 0.0 0.00 0.00 0.00 62 1007.7
20260509230047 66 282 0.0 0.0 0.00 0.00 0.00 62 1007.4
20260509225846 67 282 0.0 2.0 0.00 0.00 0.00 60 1007.7
20260509225339 67 282 0.0 2.0 0.00 0.00 0.00 58 1007.7
20260509224912 68 282 1.0 2.0 0.00 0.00 0.00 57 1007.8
20260509224545 67 282 0.0 2.0 0.00 0.00 0.00 55 1007.5
20260509224343 68 282 1.0 2.0 0.00 0.00 0.00 56 1007.9
20260509223856 69 175 0.0 2.0 0.00 0.00 0.00 58 1007.9
20260509223347 69 175 0.0 2.0 0.00 0.00 0.00 55 1007.9
20260509223041 69 175 1.0 2.0 0.00 0.00 0.00 54 1007.6
20260509222841 69 175 0.0 2.0 0.00 0.00 0.00 54 1007.9
20260509222433 69 175 1.0 2.0 0.00 0.00 0.00 55 1007.9
20260509221901 69 175 0.0 2.0 0.00 0.00 0.00 57 1007.8
20260509221552 68 175 0.0 2.0 0.00 0.00 0.00 57 1007.5
20260509221351 69 175 1.0 2.0 0.00 0.00 0.00 56 1007.9
20260509220844 69 316 1.0 3.0 0.00 0.00 0.00 58 1007.9
20260509220358 69 63 1.0 3.0 0.00 0.00 0.00 57 1007.9
20260509220047 68 349 2.0 3.0 0.00 0.00 0.00 57 1007.6
20260509215847 69 279 2.0 3.0 0.00 0.00 0.00 59 1007.9
20260509215441 69 81 1.0 4.0 0.00 0.00 0.00 57 1007.9
20260509214847 68 307 1.0 3.0 0.00 0.00 0.00 57 1007.9
20260509214542 68 306 1.0 3.0 0.00 0.00 0.00 58 1007.6
20260509214340 69 306 2.0 3.0 0.00 0.00 0.00 58 1007.9
20260509213851 69 63 1.0 5.0 0.00 0.00 0.00 56 1007.9
20260509213344 69 98 2.0 5.0 0.00 0.00 0.00 58 1007.9
20260509213037 68 63 1.0 3.0 0.00 0.00 0.00 57 1007.6
20260509212836 69 131 1.0 3.0 0.00 0.00 0.00 57 1007.9
20260509212348 69 46 1.0 4.0 0.00 0.00 0.00 58 1007.9
20260509211901 68 46 2.0 4.0 0.00 0.00 0.00 60 1007.9
20260509211555 68 200 0.0 2.0 0.00 0.00 0.00 59 1007.6
20260509211352 68 200 1.0 2.0 0.00 0.00 0.00 60 1007.9
20260509210849 67 310 1.0 3.0 0.00 0.00 0.00 61 1008.0
20260509210344 68 310 1.0 4.0 0.00 0.00 0.00 59 1007.9
20260509210053 67 310 1.0 4.0 0.00 0.00 0.00 59 1007.6
20260509205854 68 51 1.0 4.0 0.00 0.00 0.00 59 1007.9
20260509205407 68 38 0.0 3.0 0.00 0.00 0.00 61 1007.9
20260509204840 68 46 2.0 3.0 0.00 0.00 0.00 61 1007.9
20260509204530 67 37 1.0 3.0 0.00 0.00 0.00 62 1007.6
20260509203855 68 50 1.0 3.0 0.00 0.00 0.00 61 1007.9
20260509203347 67 5 1.0 3.0 0.00 0.00 0.00 61 1007.9
20260509203102 66 5 1.0 3.0 0.00 0.00 0.00 61 1007.6
20260509202840 67 5 2.0 4.0 0.00 0.00 0.00 60 1008.0
20260509202412 67 27 1.0 4.0 0.00 0.00 0.00 62 1008.0
20260509201844 67 19 1.0 3.0 0.00 0.00 0.00 59 1008.0
20260509201538 67 19 0.0 2.0 0.00 0.00 0.00 60 1007.6
20260509201337 68 110 1.0 2.0 0.00 0.00 0.00 60 1007.9
20260509200848 68 103 0.0 2.0 0.00 0.00 0.00 60 1007.9
20260509200343 68 103 1.0 2.0 0.00 0.00 0.00 55 1007.8
20260509200100 67 103 0.0 2.0 0.00 0.00 0.00 56 1007.5
20260509195852 68 103 0.0 2.0 0.00 0.02 0.00 57 1007.9
20260509195344 67 103 0.0 2.0 0.00 0.02 0.00 57 1007.9
20260509194856 67 103 1.0 2.0 0.00 0.02 0.00 56 1007.9
20260509194547 66 103 0.0 1.0 0.00 0.02 0.00 62 1007.6
20260509194346 67 103 0.0 1.0 0.00 0.02 0.00 60 1007.9
20260509193839 68 103 0.0 1.0 0.00 0.02 0.00 56 1007.9
20260509193121 68 103 0.0 3.0 0.00 0.02 0.00 57 1007.8
20260509192854 68 103 1.0 3.0 0.00 0.02 0.00 56 1008.1
20260509192347 69 54 1.0 3.0 0.00 0.02 0.00 54 1008.0
20260509191843 69 5 2.0 4.0 0.00 0.02 0.00 53 1008.0
20260509191539 69 63 1.0 4.0 0.00 0.02 0.00 54 1007.8
20260509191336 70 17 2.0 4.0 0.00 0.02 0.00 51 1008.0
20260509190849 71 351 1.0 0.0 0.00 0.00 0.00 53 1007.7
20260509190419 69 198 1.0 4.0 0.00 0.02 0.00 57 1008.0
20260509190009 68 197 0.0 5.0 0.00 0.02 0.00 53 1007.8
20260509185908 69 113 1.0 5.0 0.00 0.07 0.00 54 1008.2
20260509185339 68 131 2.0 4.0 0.00 0.07 0.00 56 1008.1
20260509184852 68 131 1.0 5.0 0.00 0.07 0.00 58 1008.2
20260509184546 67 178 1.0 5.0 0.00 0.07 0.00 55 1007.9
20260509184345 68 304 1.0 5.0 0.00 0.07 0.00 57 1008.3
20260509183856 67 167 2.0 6.0 0.00 0.07 0.00 60 1008.3
20260509183349 67 207 1.0 3.0 0.00 0.07 0.00 62 1008.4
20260509183058 65 82 0.0 4.0 0.00 0.07 0.00 61 1008.1
20260509182957 66 82 1.0 4.0 0.00 0.07 0.00 61 1008.4
20260509182348 65 77 2.0 6.0 0.00 0.07 0.00 61 1008.5
20260509181900 65 200 2.0 6.0 0.00 0.07 0.00 61 1008.6
20260509181559 65 161 2.0 6.0 0.00 0.07 0.00 60 1008.3
20260509181351 65 314 1.0 3.0 0.00 0.07 0.00 59 1008.6
20260509180843 64 134 1.0 3.0 0.00 0.07 0.00 60 1008.6
20260509180354 64 302 2.0 5.0 0.00 0.07 0.00 62 1008.6
20260509180043 64 156 1.0 5.0 0.00 0.07 0.00 61 1008.4
20260509175843 64 161 3.0 5.0 0.00 0.15 0.00 60 1008.7
20260509175357 65 153 2.0 6.0 0.00 0.15 0.00 61 1008.8
20260509174849 65 209 2.0 6.0 0.00 0.15 0.00 64 1008.9
20260509174542 64 296 0.0 3.0 0.00 0.15 0.00 67 1008.6
20260509174340 64 296 1.0 3.0 0.00 0.15 0.00 67 1008.9
20260509173852 64 263 2.0 5.0 0.00 0.15 0.00 69 1009.1
20260509173344 63 187 2.0 5.0 0.00 0.15 0.00 67 1009.0
20260509173038 63 206 1.0 4.0 0.00 0.15 0.00 68 1008.8
20260509172838 64 56 1.0 3.0 0.00 0.15 0.00 70 1009.1
20260509172350 63 96 0.0 3.0 0.00 0.15 0.00 71 1009.2
20260509171842 61 81 1.0 2.0 0.00 0.15 0.00 74 1009.2
20260509171555 60 81 0.0 1.0 0.00 0.15 0.00 79 1009.0
20260509171354 60 81 0.0 1.0 0.00 0.15 0.00 78 1009.4
20260509170847 60 81 0.0 2.0 0.00 0.15 0.00 75 1009.6
20260509170358 60 81 0.0 2.0 0.00 0.15 0.00 77 1009.6
20260509170056 59 81 0.0 2.0 0.00 0.15 0.00 78 1009.4
20260509165849 60 81 0.0 2.0 0.00 0.21 0.00 80 1009.7
20260509165340 60 81 0.0 2.0 0.00 0.21 0.00 80 1009.7
20260509164853 60 81 0.0 3.0 0.00 0.21 0.00 82 1009.8
20260509164554 59 81 0.0 3.0 0.00 0.21 0.00 82 1009.6
20260509163840 60 162 0.0 2.0 0.00 0.21 0.00 84 1010.0
20260509163045 58 65 0.0 0.0 0.00 0.21 0.00 84 1010.0
20260509162844 58 65 0.0 0.0 0.00 0.21 0.00 84 1010.3
20260509162355 59 65 0.0 0.0 0.00 0.21 0.00 84 1010.3
20260509161848 59 65 0.0 2.0 0.00 0.21 0.00 82 1010.2
20260509161554 58 65 0.0 2.0 0.00 0.21 0.00 82 1009.9
20260509161344 59 65 0.0 2.0 0.00 0.21 0.00 82 1010.2
20260509160856 59 65 0.0 1.0 0.00 0.21 0.00 84 1010.3
20260509160349 59 65 0.0 2.0 0.00 0.21 0.00 85 1010.3
20260509160040 58 65 0.0 3.0 0.00 0.21 0.00 84 1010.0
20260509155838 58 53 0.0 3.0 0.00 0.30 0.00 84 1010.2
20260509155351 58 53 0.0 2.0 0.00 0.30 0.00 85 1010.2
20260509154842 58 209 0.0 0.0 0.00 0.30 0.00 84 1010.2
20260509154356 58 209 0.0 0.0 0.00 0.30 0.00 85 1010.3
20260509153847 58 209 0.0 0.0 0.00 0.30 0.00 85 1010.4
20260509153341 57 209 0.0 0.0 0.00 0.30 0.00 87 1010.4
20260509153054 57 209 0.0 0.0 0.00 0.30 0.00 87 1010.1
20260509152853 57 209 0.0 0.0 0.00 0.30 0.00 86 1010.4
20260509152404 57 209 0.0 0.0 0.00 0.30 0.00 85 1010.4
20260509151548 57 209 0.0 0.0 0.00 0.30 0.00 88 1010.0
20260509151347 57 209 0.0 0.0 0.00 0.30 0.00 87 1010.2
20260509150840 56 209 0.0 0.0 0.00 0.30 0.00 87 1010.4
20260509150414 56 209 0.0 0.0 0.00 0.30 0.00 88 1010.4
20260509150004 56 209 0.0 0.0 0.00 0.30 0.00 90 1010.2
20260509145903 56 209 0.0 0.0 0.00 0.42 0.00 90 1010.5
20260509145355 55 209 0.0 0.0 0.00 0.42 0.00 91 1010.6
20260509144847 55 209 0.0 0.0 0.00 0.42 0.00 92 1010.3
20260509144541 55 209 0.0 0.0 0.00 0.42 0.00 92 1010.1
20260509144339 55 209 0.0 0.0 0.00 0.42 0.00 91 1010.4
20260509143849 56 209 0.0 0.0 0.00 0.42 0.00 93 1010.3
20260509143342 55 209 0.0 0.0 0.00 0.42 0.00 93 1010.3
20260509143017 54 209 0.0 0.0 0.00 0.42 0.00 93 1010.1
20260509142916 54 209 0.0 0.0 0.00 0.42 0.00 93 1010.4
20260509142346 54 209 0.0 0.0 0.00 0.42 0.00 94 1010.6
20260509141839 53 209 0.0 0.0 0.00 0.42 0.00 94 1010.7
20260509141511 52 209 0.0 0.0 0.00 0.42 0.00 95 1010.5
20260509141411 52 209 0.0 0.0 0.00 0.42 0.00 95 1010.7
20260509140844 52 209 0.0 0.0 0.00 0.42 0.00 95 1010.8
20260509140029 52 208 0.0 0.0 0.00 0.42 0.00 96 1010.5
20260509134529 51 208 0.0 0.0 0.00 0.47 0.00 96 1010.3
20260509133028 51 208 0.0 0.0 0.00 0.47 0.00 96 1010.3
20260509131527 51 208 0.0 0.0 0.00 0.47 0.00 96 1010.1
20260509130047 50 208 0.0 0.0 0.00 0.47 0.00 96 1010.4
20260509124529 50 208 0.0 0.0 0.00 0.47 0.00 96 1010.5
20260509123025 50 68 2.0 3.0 0.00 0.47 0.00 95 1010.3
20260509121528 50 305 0.0 2.0 0.00 0.47 0.00 95 1010.4
20260509120030 50 88 0.0 0.0 0.00 0.47 0.00 94 1010.6
20260509114521 50 174 0.0 1.0 0.00 0.47 0.00 91 1010.6
20260509113018 51 72 0.0 0.0 0.00 0.47 0.00 88 1010.4
20260509111518 50 72 0.0 0.0 0.00 0.47 0.00 85 1010.2
20260509110020 50 72 0.0 0.0 0.00 0.47 0.00 85 1010.2
20260509104516 50 72 0.0 0.0 0.00 0.47 0.00 84 1010.1
20260509103018 50 72 0.0 0.0 0.00 0.47 0.00 84 1009.7
20260509101515 50 72 0.0 2.0 0.00 0.47 0.00 84 1009.6
20260509100020 50 72 0.0 0.0 0.00 0.47 0.00 85 1009.6
20260509094514 50 72 0.0 0.0 0.00 0.47 0.00 85 1009.7
20260509093014 50 72 0.0 2.0 0.00 0.47 0.00 86 1009.7
20260509091513 50 132 0.0 1.0 0.00 0.47 0.00 85 1009.6
20260509090013 50 132 0.0 0.0 0.00 0.47 0.00 85 1009.4
20260509084525 50 132 0.0 0.0 0.00 0.47 0.00 86 1009.4
20260509083020 50 132 0.0 0.0 0.00 0.47 0.00 86 1009.6
20260509081513 50 132 0.0 1.0 0.00 0.47 0.00 85 1009.5
20260509080008 50 132 0.0 0.0 0.00 0.47 0.00 85 1009.6
20260509074510 50 132 0.0 0.0 0.00 0.47 0.00 85 1009.7
20260509073006 50 132 0.0 0.0 0.00 0.47 0.00 84 1009.8
20260509071504 51 132 0.0 0.0 0.00 0.47 0.00 84 1009.8
20260509070004 51 132 0.0 0.0 0.00 0.47 0.00 83 1009.8
20260509064503 51 132 0.0 0.0 0.00 0.47 0.00 83 1009.9
20260509063001 51 132 0.0 0.0 0.00 0.47 0.00 81 1009.9
20260509061615 51 132 0.0 0.0 0.00 0.47 0.00 82 1010.2
20260509060131 51 132 0.0 0.0 0.00 0.47 0.00 82 1010.3
20260509054601 52 132 0.0 0.0 0.00 0.47 0.00 81 1010.4
20260509054355 52 132 0.0 0.0 0.00 0.00 0.00 81 1010.3
20260509053846 52 132 0.0 0.0 0.00 0.47 0.00 80 1010.5
20260509053339 52 132 0.0 1.0 0.00 0.47 0.00 80 1010.5
20260509053052 52 132 0.0 2.0 0.00 0.47 0.00 80 1010.5
20260509052851 52 132 0.0 2.0 0.00 0.47 0.00 79 1010.6
20260509052344 53 132 1.0 2.0 0.00 0.47 0.00 80 1010.7
20260509051855 52 132 0.0 0.0 0.00 0.47 0.00 80 1010.5
20260509051508 52 132 0.0 0.0 0.00 0.47 0.00 80 1010.5
20260509051407 52 132 0.0 0.0 0.00 0.47 0.00 80 1010.6
20260509050838 53 132 0.0 0.0 0.00 0.47 0.00 79 1010.6
20260509050352 53 132 0.0 0.0 0.00 0.47 0.00 80 1010.6
20260509050058 52 132 0.0 0.0 0.00 0.47 0.00 80 1010.5
20260509045840 53 132 0.0 0.0 0.00 0.47 0.00 80 1010.6
20260509045353 53 132 0.0 0.0 0.00 0.47 0.00 79 1010.6
20260509044844 53 132 0.0 0.0 0.00 0.47 0.00 78 1010.5
20260509044552 52 132 0.0 0.0 0.00 0.47 0.00 78 1010.4
20260509044337 53 132 0.0 0.0 0.00 0.47 0.00 78 1010.5
20260509043850 53 132 0.0 0.0 0.00 0.47 0.00 78 1010.5
20260509043347 53 132 0.0 0.0 0.00 0.47 0.00 78 1010.6
20260509043040 53 132 0.0 0.0 0.00 0.47 0.00 78 1010.5
20260509042839 53 132 0.0 0.0 0.00 0.47 0.00 78 1010.6
20260509042412 53 132 0.0 1.0 0.00 0.47 0.00 78 1010.6
20260509041543 53 132 0.0 1.0 0.00 0.47 0.00 77 1010.5
20260509041342 53 132 0.0 1.0 0.00 0.47 0.00 77 1010.6
20260509040838 53 132 0.0 0.0 0.00 0.47 0.00 78 1010.7
20260509040352 53 132 0.0 0.0 0.00 0.47 0.00 77 1010.6
20260509040043 53 132 0.0 1.0 0.00 0.47 0.00 77 1010.5
20260509035842 54 132 0.0 1.0 0.00 0.47 0.47 76 1010.7
20260509035415 54 132 0.0 3.0 0.00 0.47 0.47 76 1010.6
20260509034845 54 132 2.0 3.0 0.00 0.47 0.47 76 1010.6
20260509034542 53 132 1.0 3.0 0.00 0.47 0.47 77 1010.4
20260509034339 54 132 1.0 3.0 0.00 0.47 0.47 76 1010.5
20260509033851 54 131 1.0 2.0 0.00 0.47 0.47 75 1010.5
20260509033343 54 77 0.0 1.0 0.00 0.47 0.47 75 1010.4
20260509033056 54 77 0.0 1.0 0.00 0.47 0.47 74 1010.2
20260509032855 54 77 0.0 1.0 0.00 0.47 0.47 73 1010.2
20260509032406 54 77 0.0 1.0 0.00 0.47 0.47 73 1010.4
20260509031837 55 77 1.0 2.0 0.00 0.47 0.47 74 1010.5
20260509031550 54 77 0.0 2.0 0.00 0.47 0.47 73 1010.5
20260509031349 55 77 0.0 2.0 0.00 0.47 0.47 73 1010.5
20260509030921 55 77 1.0 3.0 0.00 0.47 0.47 73 1010.5
20260509030348 55 77 1.0 3.0 0.00 0.47 0.47 74 1010.6
20260509030043 55 77 1.0 3.0 0.00 0.47 0.47 73 1010.5
20260509025838 56 77 2.0 4.0 0.00 0.47 0.47 71 1010.5
20260509025349 55 344 2.0 4.0 0.00 0.47 0.47 71 1010.8
20260509024900 56 51 2.0 3.0 0.00 0.47 0.47 73 1010.7
20260509024552 55 97 0.0 3.0 0.00 0.47 0.47 73 1010.7
20260509024351 56 223 0.0 2.0 0.00 0.47 0.47 72 1011.0
20260509023843 56 228 1.0 2.0 0.00 0.47 0.47 71 1011.1
20260509023355 56 179 0.0 0.0 0.00 0.47 0.47 71 1011.0
20260509023012 55 179 0.0 0.0 0.00 0.47 0.47 70 1011.0
20260509022907 56 179 0.0 2.0 0.00 0.47 0.47 70 1011.1
20260509022358 56 179 0.0 2.0 0.00 0.47 0.47 68 1011.1
20260509021849 55 63 0.0 4.0 0.00 0.47 0.47 66 1011.0
20260509021542 55 63 0.0 4.0 0.00 0.47 0.47 67 1010.8
20260509021341 56 308 2.0 4.0 0.00 0.47 0.47 66 1010.7
20260509020913 56 59 0.0 1.0 0.00 0.47 0.47 67 1010.7
20260509020345 56 59 0.0 1.0 0.00 0.47 0.47 67 1010.8
20260509020058 55 59 0.0 1.0 0.00 0.47 0.47 67 1010.9
20260509015853 56 59 0.0 1.0 0.00 0.47 0.47 66 1010.9
20260509015345 56 59 0.0 1.0 0.00 0.47 0.47 65 1010.9
20260509014838 56 59 0.0 1.0 0.00 0.47 0.47 64 1010.8
20260509014551 56 59 0.0 1.0 0.00 0.47 0.47 64 1010.7
20260509014350 56 59 0.0 1.0 0.00 0.47 0.47 64 1010.8
20260509013839 56 59 0.0 0.0 0.00 0.47 0.47 64 1010.8
20260509013350 56 59 0.0 0.0 0.00 0.47 0.47 64 1010.8
20260509013001 55 59 0.0 0.0 0.00 0.47 0.47 65 1010.7
20260509012901 56 59 0.0 0.0 0.00 0.47 0.47 65 1010.7
20260509012351 56 59 0.0 1.0 0.00 0.47 0.47 65 1010.7
20260509011842 56 59 1.0 2.0 0.00 0.47 0.47 65 1010.6
20260509011518 55 59 0.0 2.0 0.00 0.47 0.47 64 1010.6
20260509011416 56 59 1.0 2.0 0.00 0.47 0.47 65 1010.6
20260509010846 56 59 0.0 0.0 0.00 0.47 0.47 64 1010.5
20260509010357 56 59 327.0 327.0 0.00 0.00 0.47 63 1010.3
20260509010007 56 59 0.0 2.0 0.00 0.47 0.47 62 1010.5
20260509005906 56 59 0.0 2.0 0.00 0.47 0.47 63 1010.4
20260509005337 57 66 0.0 2.0 0.00 0.47 0.47 60 1010.3
20260509004850 57 66 0.0 0.0 0.00 0.47 0.47 59 1010.4
20260509004543 57 66 0.0 0.0 0.00 0.47 0.47 58 1010.4
20260509004342 57 66 0.0 0.0 0.00 0.47 0.47 58 1010.4
20260509003909 57 66 0.0 0.0 0.00 0.47 0.47 59 1010.4
20260509003340 58 66 0.0 0.0 0.00 0.47 0.47 58 1010.4
20260509003100 57 66 0.0 0.0 0.00 0.47 0.47 58 1010.4
20260509002851 58 66 0.0 0.0 0.00 0.47 0.47 58 1010.5
20260509002423 58 66 0.0 0.0 0.00 0.47 0.47 58 1010.4
20260509001851 59 66 0.0 0.0 0.00 0.47 0.47 55 1010.3
20260509001523 59 66 0.0 0.0 0.00 0.47 0.47 55 1010.3
20260509001422 59 66 0.0 0.0 0.00 0.00 0.47 54 1010.1
20260509000849 60 66 0.0 0.0 0.00 0.47 0.47 54 1010.3
20260509000342 60 66 0.0 0.0 0.00 0.47 0.47 52 1010.2
20260509000016 60 66 0.0 0.0 0.00 0.47 0.47 52 1010.1
20260508235911 61 66 0.0 0.0 0.00 0.47 0.47 52 1010.2
20260508235341 62 66 0.0 0.0 0.00 0.47 0.47 50 1010.2
20260508234912 62 66 0.0 0.0 0.00 0.47 0.47 51 1010.2
20260508234542 62 66 0.0 0.0 0.00 0.47 0.47 50 1010.1
20260508234342 63 66 0.0 0.0 0.00 0.47 0.47 52 1010.1